TimeEST,TemperatureF,Dew PointF,Humidity,Sea Level PressureIn,VisibilityMPH,Wind Direction,Wind SpeedMPH,Gust SpeedMPH,PrecipitationIn,Events,Conditions,WindDirDegrees,DateUTC
12:14 AM,32.9,30.9,92,30.34,10.0,ESE,5.8,-,N/A,,Scattered Clouds,110,2013-11-04 05:14:00
12:35 AM,33.4,31.3,92,30.34,10.0,ESE,6.9,-,N/A,,Mostly Cloudy,110,2013-11-04 05:35:00
12:55 AM,36.7,32.0,83,30.34,10.0,SE,15.0,-,N/A,,Overcast,130,2013-11-04 05:55:00
1:14 AM,36.9,32.0,83,30.34,10.0,SE,10.4,16.1,N/A,,Overcast,140,2013-11-04 06:14:00
1:35 AM,36.9,32.0,83,30.34,10.0,SE,12.7,19.6,N/A,,Overcast,140,2013-11-04 06:35:00
1:55 AM,36.7,32.0,83,30.33,10.0,SE,13.8,18.4,N/A,,Overcast,130,2013-11-04 06:55:00
2:14 AM,36.9,32.0,83,30.34,10.0,SE,8.1,20.7,N/A,,Overcast,140,2013-11-04 07:14:00
2:35 AM,36.7,32.0,83,30.34,10.0,SE,15.0,23.0,N/A,,Overcast,140,2013-11-04 07:35:00
2:55 AM,36.9,32.0,83,30.34,10.0,SE,13.8,19.6,N/A,,Overcast,140,2013-11-04 07:55:00
3:15 AM,36.9,32.0,83,30.34,10.0,SSE,17.3,21.9,N/A,,Overcast,150,2013-11-04 08:15:00
3:35 AM,37.0,32.2,83,30.34,10.0,SE,15.0,23.0,N/A,,Overcast,140,2013-11-04 08:35:00
3:55 AM,36.9,32.4,84,30.33,10.0,SE,10.4,19.6,N/A,,Overcast,130,2013-11-04 08:55:00
4:15 AM,37.0,32.5,84,30.33,10.0,SE,10.4,18.4,N/A,,Overcast,140,2013-11-04 09:15:00
4:35 AM,37.2,32.9,84,30.32,10.0,ESE,12.7,18.4,N/A,,Overcast,120,2013-11-04 09:35:00
4:55 AM,37.0,32.9,85,30.33,10.0,SE,9.2,-,N/A,,Overcast,130,2013-11-04 09:55:00
5:15 AM,37.4,32.9,84,30.32,10.0,SE,9.2,-,N/A,,Overcast,130,2013-11-04 10:15:00
5:35 AM,37.9,33.1,83,30.32,10.0,SE,10.4,18.4,N/A,,Overcast,140,2013-11-04 10:35:00
5:54 AM,37.8,32.9,83,30.32,10.0,SE,12.7,-,N/A,,Overcast,140,2013-11-04 10:54:00
6:15 AM,37.6,32.5,82,30.32,10.0,SSE,11.5,16.1,N/A,,Overcast,150,2013-11-04 11:15:00
6:35 AM,37.4,32.4,82,30.31,10.0,SE,8.1,18.4,N/A,,Overcast,130,2013-11-04 11:35:00
6:54 AM,37.4,32.7,83,30.31,10.0,SE,10.4,17.3,N/A,,Overcast,140,2013-11-04 11:54:00
7:15 AM,37.6,32.4,81,30.30,10.0,SE,16.1,20.7,N/A,,Overcast,140,2013-11-04 12:15:00
7:35 AM,37.8,32.5,81,30.30,10.0,SE,12.7,19.6,N/A,,Overcast,140,2013-11-04 12:35:00
7:55 AM,38.3,32.7,80,30.30,10.0,SE,12.7,20.7,N/A,,Overcast,140,2013-11-04 12:55:00
8:15 AM,38.5,32.9,80,30.29,10.0,SSE,13.8,25.3,N/A,,Mostly Cloudy,150,2013-11-04 13:15:00
8:35 AM,38.8,33.1,80,30.28,10.0,SSE,15.0,24.2,N/A,,Mostly Cloudy,160,2013-11-04 13:35:00
8:55 AM,39.4,33.3,79,30.28,10.0,SSE,13.8,20.7,N/A,,Overcast,150,2013-11-04 13:55:00
9:15 AM,39.7,33.3,78,30.28,10.0,SSE,16.1,26.5,N/A,,Mostly Cloudy,160,2013-11-04 14:15:00
9:34 AM,40.1,33.3,77,30.27,10.0,SSE,15.0,24.2,N/A,,Scattered Clouds,150,2013-11-04 14:34:00
9:55 AM,40.1,33.3,77,30.27,10.0,SSE,18.4,29.9,N/A,,Scattered Clouds,150,2013-11-04 14:55:00
10:15 AM,40.5,33.6,77,30.27,10.0,SSE,17.3,29.9,N/A,,Clear,150,2013-11-04 15:15:00
10:34 AM,41.0,33.6,75,30.27,10.0,SSE,15.0,24.2,N/A,,Mostly Cloudy,160,2013-11-04 15:34:00
10:55 AM,41.4,33.8,74,30.26,10.0,SSE,12.7,32.2,N/A,,Scattered Clouds,150,2013-11-04 15:55:00
11:15 AM,41.5,33.4,73,30.25,10.0,SSE,19.6,24.2,N/A,,Mostly Cloudy,150,2013-11-04 16:15:00
11:34 AM,42.3,33.8,72,30.25,10.0,SSE,19.6,26.5,N/A,,Mostly Cloudy,160,2013-11-04 16:34:00
11:55 AM,42.8,33.8,70,30.24,10.0,SSE,19.6,29.9,N/A,,Scattered Clouds,150,2013-11-04 16:55:00
12:15 PM,43.2,33.8,70,30.23,10.0,SSE,18.4,26.5,N/A,,Mostly Cloudy,160,2013-11-04 17:15:00
12:35 PM,43.7,33.8,68,30.22,10.0,SSE,19.6,26.5,N/A,,Overcast,160,2013-11-04 17:35:00
12:55 PM,43.9,34.0,68,30.22,10.0,SSE,16.1,26.5,N/A,,Overcast,150,2013-11-04 17:55:00
1:15 PM,44.6,33.4,65,30.21,10.0,SSE,19.6,28.8,N/A,,Overcast,150,2013-11-04 18:15:00
1:35 PM,45.0,32.9,63,30.19,10.0,SE,23.0,27.6,N/A,,Scattered Clouds,140,2013-11-04 18:35:00
1:55 PM,46.2,32.9,60,30.18,10.0,SE,17.3,28.8,N/A,,Clear,140,2013-11-04 18:55:00
2:14 PM,46.4,32.4,58,30.18,10.0,SSE,27.6,32.2,N/A,,Mostly Cloudy,150,2013-11-04 19:14:00
2:35 PM,45.9,32.0,58,30.17,10.0,SSE,18.4,32.2,N/A,,Overcast,150,2013-11-04 19:35:00
2:55 PM,45.7,32.4,60,30.17,10.0,SSE,16.1,26.5,N/A,,Overcast,150,2013-11-04 19:55:00
3:14 PM,45.1,33.1,63,30.16,10.0,SSE,17.3,25.3,N/A,,Overcast,150,2013-11-04 20:14:00
3:35 PM,45.5,32.0,59,30.15,10.0,SE,13.8,24.2,N/A,,Scattered Clouds,140,2013-11-04 20:35:00
3:55 PM,45.3,32.7,61,30.13,10.0,SE,17.3,21.9,N/A,,Clear,130,2013-11-04 20:55:00
4:14 PM,45.5,32.2,60,30.13,10.0,SE,15.0,28.8,N/A,,Scattered Clouds,140,2013-11-04 21:14:00
4:35 PM,45.9,30.7,56,30.12,10.0,SSE,21.9,27.6,N/A,,Mostly Cloudy,150,2013-11-04 21:35:00
4:55 PM,46.4,28.9,51,30.12,10.0,SSE,17.3,27.6,N/A,,Overcast,160,2013-11-04 21:55:00
5:15 PM,46.6,28.8,50,30.13,10.0,SSE,15.0,27.6,N/A,,Overcast,160,2013-11-04 22:15:00
5:35 PM,45.7,29.7,54,30.11,10.0,SE,17.3,25.3,N/A,,Mostly Cloudy,140,2013-11-04 22:35:00
5:55 PM,45.3,28.8,52,30.11,10.0,SE,16.1,26.5,N/A,,Overcast,140,2013-11-04 22:55:00
6:15 PM,44.6,28.6,53,30.11,10.0,SE,18.4,25.3,N/A,,Mostly Cloudy,140,2013-11-04 23:15:00
6:35 PM,43.9,28.4,55,30.10,10.0,SE,15.0,26.5,N/A,,Mostly Cloudy,140,2013-11-04 23:35:00
6:54 PM,44.1,28.4,54,30.10,10.0,SSE,11.5,23.0,N/A,,Scattered Clouds,150,2013-11-04 23:54:00
7:15 PM,44.4,29.5,56,30.11,10.0,SSE,13.8,19.6,N/A,,Mostly Cloudy,150,2013-11-05 00:15:00
7:35 PM,44.6,30.7,58,30.11,10.0,SSE,12.7,20.7,N/A,,Overcast,150,2013-11-05 00:35:00
7:54 PM,44.6,31.5,60,30.11,10.0,SSE,13.8,19.6,N/A,Rain,Light Rain,150,2013-11-05 00:54:00
8:15 PM,44.8,31.1,59,30.11,10.0,SSE,15.0,24.2,N/A,,Overcast,150,2013-11-05 01:15:00
8:35 PM,45.1,31.1,58,30.11,10.0,SSE,17.3,24.2,N/A,,Overcast,160,2013-11-05 01:35:00
8:55 PM,44.1,32.0,63,30.11,10.0,SSE,13.8,28.8,N/A,Rain,Rain,160,2013-11-05 01:55:00
9:15 PM,43.5,33.3,67,30.11,10.0,South,15.0,24.2,N/A,Rain,Light Rain,170,2013-11-05 02:15:00
9:34 PM,42.8,34.0,71,30.12,10.0,SSE,13.8,24.2,N/A,Rain,Light Rain,160,2013-11-05 02:34:00
9:55 PM,42.6,34.0,71,30.12,10.0,SSE,16.1,20.7,N/A,,Overcast,160,2013-11-05 02:55:00
10:15 PM,43.3,33.8,69,30.11,10.0,SSE,16.1,23.0,N/A,,Overcast,160,2013-11-05 03:15:00
10:34 PM,43.5,34.0,69,30.11,10.0,SSE,17.3,21.9,N/A,,Overcast,160,2013-11-05 03:34:00
10:55 PM,43.7,33.8,68,30.11,10.0,South,16.1,21.9,N/A,,Overcast,170,2013-11-05 03:55:00
11:15 PM,43.9,33.8,68,30.11,10.0,South,15.0,23.0,N/A,,Overcast,170,2013-11-05 04:15:00
11:35 PM,44.1,34.0,68,30.10,10.0,SSE,13.8,24.2,N/A,,Overcast,160,2013-11-05 04:35:00
11:55 PM,44.4,34.3,68,30.10,10.0,South,13.8,20.7,N/A,,Overcast,170,2013-11-05 04:55:00